[[{"header":{"parameterUnit":"m.s-1","parameterCategory":2,"la1":30.2991,"la2":30.254,"lo1":-89.0895,"lo2":-89.0444,"dy":0.0017,"dx":0.0017,"nx":28,"ny":28,"refTime":"2024-05-01T09:00:00:Z","depth":"0","parameterNumber":2,"parameterNumberName":"U-component_of_CURRENTS"},"data":[0,0,0,0,0,0,0,0,0,0,0,0,0,0,0,0,0,0,0,0,0,0,0,0,0,0,0,0,0,0,0,0,0,0,0,0,0,0,0,0,0,0,0,0,0,0,0,0,0,0,0,0,0,0,0,0,0,0,-0.221,-0.2211,0,-0.2275,-0.2276,-0.2276,-0.2251,-0.225,-0.2249,-0.2248,-0.2172,-0.2171,-0.217,0,0,0,0,0,0,0,0,0,0,0,0,0,-0.1961,-0.1966,-0.2209,-0.2211,-0.2212,-0.2275,-0.2276,-0.2276,-0.2251,-0.225,-0.2249,-0.2248,-0.2172,-0.2171,-0.217,0,0,0,0,0,0,0,0,0,0,0,0,0,-0.2046,-0.1967,-0.2209,-0.2212,-0.2214,-0.2275,-0.2276,-0.2276,-0.2251,-0.225,-0.2249,-0.2247,-0.2173,-0.2171,-0.2169,-0.2186,0,0,-0.2164,-0.2163,0,0,0,0,0,0,0,0,-0.2041,-0.2055,-0.221,-0.2212,-0.2214,-0.2259,-0.216,-0.2241,-0.2252,-0.223,-0.2248,-0.2247,-0.2193,-0.219,-0.2198,-0.2183,-0.2179,-0.2164,-0.2163,-0.2162,-0.2161,0,0,0,0,0,0,0,-0.2036,-0.2051,-0.2229,-0.2212,-0.2214,-0.2176,-0.2187,-0.2175,-0.2211,-0.2232,-0.2232,-0.225,-0.2192,-0.22,-0.2196,-0.2178,-0.2164,-0.2162,-0.2161,-0.2161,-0.224,-0.2243,0,0,0,0,0,0,-0.2049,-0.2047,-0.2227,-0.2232,-0.213,-0.2182,-0.2194,-0.2241,-0.2214,-0.2212,-0.2251,-0.2249,-0.2204,-0.2198,-0.2193,-0.2274,-0.2162,-0.216,-0.2159,-0.2237,-0.2241,-0.2244,0,0,0,0,0,0,-0.2043,-0.2065,-0.2225,-0.2143,-0.2161,-0.219,-0.2241,-0.2243,-0.2247,-0.2232,-0.2225,-0.2253,-0.2202,-0.2195,-0.2208,-0.2268,-0.216,-0.2158,-0.2233,-0.2238,-0.2242,-0.2395,0,0,0,0,0,0,-0.2036,-0.2064,-0.2086,-0.2146,-0.2167,-0.2289,-0.2243,-0.2245,-0.2263,-0.226,-0.2231,-0.2223,-0.2201,-0.2212,-0.2207,-0.2263,-0.2157,-0.2229,-0.2235,-0.2241,-0.2386,-0.2404,-0.242,0,0,0,0,0,-0.2028,-0.207,-0.2087,-0.2108,-0.2204,-0.2292,-0.23,-0.2307,-0.2265,-0.2296,-0.2273,-0.2224,-0.2246,-0.2213,-0.2206,-0.2264,-0.2226,-0.2234,-0.224,-0.2378,-0.24,-0.2419,0,0,0,0,0,0,-0.1954,-0.2075,-0.2093,-0.2165,-0.2237,-0.2291,-0.2306,-0.231,-0.2315,-0.2296,-0.2255,-0.2249,-0.2295,-0.2254,-0.2218,-0.2307,-0.2232,-0.2238,-0.2339,-0.2359,-0.2376,-0.2324,-0.2155,0,0,0,0,0,-0.1959,-0.2032,-0.213,-0.2185,-0.222,-0.2259,-0.2284,-0.2307,-0.2329,-0.2328,-0.2318,-0.2305,-0.2323,-0.2317,-0.233,-0.2358,-0.2256,-0.2395,-0.2412,-0.2427,-0.2383,-0.232,-0.2326,-0.2268,-0.2267,-0.2267,0,0,-0.194,-0.2017,-0.2053,-0.2175,-0.2214,-0.2303,-0.2269,-0.233,-0.239,-0.2317,-0.2369,-0.2367,-0.2347,-0.2407,-0.2421,-0.2373,-0.2391,-0.2436,-0.2448,-0.2395,-0.2328,-0.2333,-0.2337,-0.2272,-0.2272,-0.2271,0,0,-0.1962,-0.2016,-0.2092,-0.2174,-0.2273,-0.2315,-0.2337,-0.2415,-0.2429,-0.2496,-0.2467,-0.2486,-0.2511,-0.2515,-0.2514,-0.2621,-0.2495,-0.2644,-0.2671,-0.2615,-0.2617,-0.2618,-0.2487,-0.2475,-0.2639,-0.264,-0.264,0,-0.1927,-0.2044,-0.2121,-0.2227,-0.227,-0.2327,-0.24,-0.2461,-0.2532,-0.2513,-0.2532,-0.2544,-0.2561,-0.2577,-0.2648,-0.2657,-0.2569,-0.2598,-0.2632,-0.2631,-0.2629,-0.2495,-0.2479,-0.2648,-0.2647,-0.2646,-0.2645,0,-0.203,-0.2114,-0.2159,-0.2316,-0.2384,-0.2452,-0.2556,-0.2599,-0.2612,-0.2641,-0.2662,-0.2692,-0.2669,-0.2727,-0.273,-0.2741,-0.2663,-0.2672,-0.257,-0.2643,-0.2498,-0.2479,-0.2659,-0.2657,-0.2654,-0.2652,0,0,-0.1953,-0.2181,-0.2191,-0.2238,-0.242,-0.2461,-0.2574,-0.2633,-0.2602,-0.2717,-0.2658,-0.279,-0.2756,-0.2752,-0.2764,-0.2746,-0.2711,-0.2714,-0.2708,-0.2563,-0.2514,-0.2392,-0.2358,-0.2724,-0.2722,-0.272,-0.2412,0,-0.1983,-0.2141,-0.2264,-0.237,-0.2434,-0.252,-0.2585,-0.2649,-0.2671,-0.2646,-0.2684,-0.2672,-0.2785,-0.2752,-0.2774,-0.2711,-0.2668,-0.2787,-0.2479,-0.2467,-0.2335,-0.2337,-0.2296,-0.2013,-0.2393,-0.2389,-0.2387,0,-0.203,-0.212,-0.2227,-0.2321,-0.2346,-0.2421,-0.2418,-0.2498,-0.2518,-0.2521,-0.254,-0.2546,-0.2569,-0.2638,-0.2572,-0.2638,-0.2586,-0.2544,-0.2532,-0.2336,-0.2311,-0.2004,-0.1962,-0.1988,-0.2356,-0.2359,-0.2361,0,-0.1886,-0.2064,-0.211,-0.217,-0.232,-0.2324,-0.2378,-0.2422,-0.2408,-0.2421,-0.2364,-0.2406,-0.2363,-0.2368,-0.2365,-0.2448,-0.2215,-0.2305,-0.2126,-0.2113,-0.1969,-0.1947,-0.1889,-0.2212,-0.2213,-0.2214,-0.2215,0,-0.1858,-0.1889,-0.2031,-0.2068,-0.2043,-0.2194,-0.2142,-0.22,-0.2204,-0.2138,-0.2275,-0.2189,-0.2298,-0.221,-0.2245,-0.2095,-0.2119,-0.208,-0.2025,-0.2022,-0.201,-0.1935,-0.1984,-0.2202,-0.2205,-0.2207,-0.2209,0,-0.1726,-0.1838,-0.1876,-0.1983,-0.1994,-0.1974,-0.2018,-0.1968,-0.2021,-0.1927,-0.1926,-0.1965,-0.1878,-0.1913,-0.1835,-0.1874,-0.1739,-0.1714,-0.1668,-0.1615,-0.1523,-0.1581,-0.1348,-0.1312,-0.1462,-0.1457,-0.1453,0,-0.1687,-0.1701,-0.1766,-0.1755,-0.1806,-0.1802,-0.178,-0.1858,-0.1816,-0.1772,-0.1691,-0.1603,-0.1546,-0.1383,-0.1402,-0.1337,-0.1453,-0.1259,-0.1449,-0.1459,-0.1485,-0.1542,-0.1537,-0.1304,-0.13,-0.1295,-0.1292,0,-0.1584,-0.1594,-0.1617,-0.1591,-0.1569,-0.1544,-0.1535,-0.1474,-0.1527,-0.1467,-0.1365,-0.1314,-0.1177,-0.1119,-0.1043,-0.1036,-0.1255,-0.1169,-0.1212,-0.1357,-0.1379,-0.1336,-0.1526,-0.1256,-0.126,-0.1262,-0.1264,-0.1266,-0.1465,-0.1436,-0.1447,-0.1408,-0.1373,-0.1308,-0.1255,-0.1237,-0.1158,-0.1084,-0.1082,-0.1009,-0.0993,-0.09,-0.0856,-0.0823,-0.0909,-0.0908,-0.0963,-0.1009,-0.1028,-0.1091,-0.0764,-0.0765,-0.0766,-0.0766,-0.0767,0,-0.133,-0.1313,-0.1272,-0.1227,-0.1142,-0.1175,-0.1093,-0.103,-0.0924,-0.0877,-0.0822,-0.0803,-0.0748,-0.0749,-0.0723,-0.07,-0.0744,-0.0706,-0.0842,-0.084,-0.0903,-0.0959,-0.0622,-0.0622,-0.0622,-0.0622,-0.0622,-0.0622,-0.1257,-0.1184,-0.1172,-0.1017,-0.0981,-0.0856,-0.08,-0.0723,-0.0675,-0.0582,-0.0575,-0.0593,-0.0677,-0.0775,-0.0754,-0.0712,-0.076,-0.0687,-0.0719,-0.0871,-0.0898,-0.0925,-0.0991,-0.0666,-0.0667,-0.0656,-0.0656,-0.0656]},{"header":{"parameterUnit":"m.s-1","parameterCategory":2,"la1":30.2991,"la2":30.254,"lo1":-89.0895,"lo2":-89.0444,"dy":0.0017,"dx":0.0017,"nx":28,"ny":28,"refTime":"2024-05-01T09:00:00:Z","depth":"0","parameterNumber":3,"parameterNumberName":"V-component_of_CURRENTS"},"data":[0,0,0,0,0,0,0,0,0,0,0,0,0,0,0,0,0,0,0,0,0,0,0,0,0,0,0,0,0,0,0,0,0,0,0,0,0,0,0,0,0,0,0,0,0,0,0,0,0,0,0,0,0,0,0,0,0,0,-0.0008,-0.0008,0,0.0029,0.003,0.0031,0.0032,0.0032,0.0031,0.0031,0.0131,0.0134,0.0138,0,0,0,0,0,0,0,0,0,0,0,0,0,0.0015,0.0014,-0.0008,-0.0008,-0.0008,0.0029,0.003,0.0031,0.0032,0.0032,0.0031,0.003,0.013,0.0134,0.0138,0,0,0,0,0,0,0,0,0,0,0,0,0,0.0025,0.0014,-0.0009,-0.0004,-0.0003,0.0029,0.003,0.0031,0.0033,0.0032,0.0031,0.003,0.0129,0.0134,0.0138,0.0186,0,0,0.0153,0.0155,0,0,0,0,0,0,0,0,0.0025,0.0025,-0.0005,-0.0004,-0.0003,0.0024,0.0075,0.0085,0.0033,0.0021,0.0031,0.003,0.0101,0.0108,0.0118,0.0191,0.0195,0.0154,0.0157,0.0159,0.016,0,0,0,0,0,0,0,0.0024,0.0023,0.0008,-0.0004,-0.0003,0.0029,0.0029,0.0077,0.0068,0.0022,0.0022,0.0024,0.0102,0.0114,0.0121,0.0196,0.0153,0.0158,0.0161,0.0163,0.0328,0.0329,0,0,0,0,0,0,0.0012,0.0022,0.0007,0.0009,0.0007,0.0029,0.0029,0.0017,0.0066,0.0071,0.0024,0.0024,0.0106,0.0115,0.0124,0.0173,0.0159,0.0163,0.0166,0.0327,0.0328,0.033,0,0,0,0,0,0,0.0012,0.001,0.0005,0.0016,0.0018,0.0028,0.0016,0.0019,0.0026,0.0067,0.0074,0.0029,0.0105,0.0118,0.017,0.0177,0.0165,0.017,0.0325,0.0327,0.0329,0.0276,0,0,0,0,0,0,0.0012,0.0009,-0.0002,0.0015,0.0017,0.0021,0.0017,0.002,0.0028,0.0028,0.0074,0.0082,0.0106,0.0162,0.0175,0.0183,0.0174,0.0323,0.0326,0.0328,0.0276,0.0276,0.0277,0,0,0,0,0,0.0013,-0.0011,-0.0003,-0.0005,-0.0001,0.0021,0.0025,0.0032,0.0029,0.0035,0.0069,0.008,0.0189,0.0168,0.0182,0.0192,0.0322,0.0325,0.0328,0.0276,0.0276,0.0277,0,0,0,0,0,0,-0.0013,-0.0012,-0.0004,-0.0028,-0.0002,0.002,0.0018,0.0033,0.0064,0.0061,0.01,0.0112,0.0164,0.0194,0.0169,0.0252,0.0258,0.0264,0.0213,0.0214,0.0214,0.0159,0.0178,0,0,0,0,0,-0.0021,-0.0036,-0.0015,-0.0031,-0.0024,0.0002,0.001,0.0021,0.0049,0.006,0.0097,0.0142,0.0191,0.0212,0.0263,0.0306,0.0332,0.0325,0.0325,0.0325,0.0292,0.035,0.0352,0.0341,0.0341,0.0341,0,0,-0.0036,-0.0036,-0.0046,-0.0036,-0.0021,-0.0021,0.0004,0.0014,0.0017,0.007,0.009,0.015,0.0207,0.0254,0.0279,0.0274,0.0349,0.0329,0.0328,0.0295,0.0354,0.0354,0.0355,0.0343,0.0343,0.0342,0,0,-0.0077,-0.0071,-0.0098,-0.0079,-0.0058,-0.0037,-0.0035,-0.0002,0.0013,0.0055,0.0093,0.0148,0.0225,0.0257,0.0286,0.0322,0.0356,0.0352,0.0296,0.0354,0.0354,0.0355,0.0409,0.0414,0.0343,0.0343,0.0343,0,-0.0098,-0.0129,-0.0097,-0.0109,-0.0104,-0.005,-0.0065,-0.0037,0.0013,0.003,0.0054,0.0168,0.0219,0.0263,0.027,0.0317,0.0355,0.0284,0.035,0.0351,0.0352,0.0407,0.0414,0.0341,0.0341,0.0341,0.0341,0,-0.0152,-0.0172,-0.0183,-0.0184,-0.0163,-0.0166,-0.012,-0.0099,-0.0062,-0.002,0.0047,0.0126,0.0186,0.0224,0.0251,0.029,0.0318,0.0348,0.0336,0.0349,0.0408,0.0416,0.0338,0.0338,0.0339,0.0339,0,0,-0.0214,-0.0227,-0.0228,-0.024,-0.0206,-0.0195,-0.0185,-0.0154,-0.0136,-0.0068,-0.0033,0.0048,0.0104,0.0139,0.02,0.0237,0.0292,0.028,0.0285,0.0309,0.0419,0.0421,0.043,0.0334,0.0334,0.0335,0.0463,0,-0.027,-0.0328,-0.0303,-0.033,-0.0353,-0.0295,-0.0277,-0.023,-0.017,-0.0111,-0.003,0.0049,0.0071,0.0123,0.0155,0.0275,0.0306,0.0253,0.0422,0.0427,0.0407,0.0437,0.0433,0.0544,0.047,0.0472,0.0472,0,-0.0329,-0.0362,-0.042,-0.0409,-0.0408,-0.0403,-0.0362,-0.0337,-0.0243,-0.0179,-0.0111,-0.0017,0.0057,0.0091,0.0228,0.0197,0.0281,0.0359,0.0367,0.038,0.0442,0.0519,0.0561,0.0642,0.0485,0.0484,0.0483,0,-0.0397,-0.043,-0.0486,-0.0486,-0.0467,-0.0471,-0.0449,-0.0369,-0.0313,-0.0219,-0.0133,-0.005,0.005,0.0131,0.0278,0.0266,0.044,0.0461,0.0532,0.0535,0.0565,0.0568,0.0675,0.0535,0.0535,0.0535,0.0534,0,-0.0468,-0.0501,-0.0527,-0.0554,-0.0579,-0.0535,-0.0516,-0.0473,-0.0359,-0.0258,-0.0172,-0.0059,0.0068,0.0195,0.028,0.0429,0.0447,0.0512,0.0563,0.0552,0.0552,0.0649,0.068,0.054,0.0538,0.0538,0.0537,0,-0.0523,-0.0551,-0.0606,-0.062,-0.0619,-0.0634,-0.0553,-0.0507,-0.0404,-0.0268,-0.0219,-0.0035,0.0119,0.0236,0.0412,0.0469,0.0642,0.0637,0.0607,0.0649,0.0757,0.0785,0.0915,0.0964,0.0729,0.0729,0.073,0,-0.0553,-0.0602,-0.0657,-0.0679,-0.0688,-0.0689,-0.0654,-0.0551,-0.0458,-0.0236,-0.0143,0.0033,0.0186,0.0413,0.0516,0.0649,0.0707,0.0734,0.0691,0.0751,0.0821,0.0833,0.0866,0.0735,0.0735,0.0736,0.0736,0,-0.0598,-0.063,-0.0673,-0.0733,-0.0733,-0.0708,-0.0642,-0.0558,-0.0385,-0.0243,-0.0016,0.0111,0.0318,0.0473,0.0615,0.0687,0.0776,0.0747,0.0833,0.0836,0.0835,0.0911,0.0663,0.0741,0.074,0.074,0.074,0.0739,-0.061,-0.0658,-0.0721,-0.0764,-0.0759,-0.0695,-0.0639,-0.0508,-0.0346,-0.0085,0.0035,0.0238,0.0435,0.0627,0.0718,0.0853,0.0835,0.0896,0.093,0.094,0.0959,0.0702,0.0815,0.0815,0.0815,0.0815,0.0815,0,-0.062,-0.0677,-0.0731,-0.0766,-0.0745,-0.0738,-0.059,-0.048,-0.0276,-0.0072,0.0123,0.0379,0.058,0.0744,0.093,0.1034,0.1055,0.1084,0.111,0.1139,0.0945,0.0914,0.1024,0.1024,0.1024,0.1024,0.1024,0.1024,-0.0626,-0.0693,-0.0735,-0.0737,-0.0739,-0.0642,-0.0548,-0.0379,-0.0206,0.0074,0.0244,0.0381,0.0599,0.0974,0.1196,0.1219,0.1327,0.1303,0.1375,0.1243,0.1228,0.1214,0.1193,0.136,0.1361,0.1551,0.1553,0.1555]}],[{"header":{"parameterUnit":"m.s-1","parameterCategory":2,"la1":30.2991,"la2":30.254,"lo1":-89.0895,"lo2":-89.0444,"dy":0.0017,"dx":0.0017,"nx":28,"ny":28,"refTime":"2024-05-01T09:00:00:Z","depth":"2","parameterNumber":2,"parameterNumberName":"U-component_of_CURRENTS"},"data":[0,0,0,0,0,0,0,0,0,0,0,0,0,0,0,0,0,0,0,0,0,0,0,0,0,0,0,0,0,0,0,0,0,0,0,0,0,0,0,0,0,0,0,0,0,0,0,0,0,0,0,0,0,0,0,0,0,0,-0.128,-0.1279,0,-0.1184,-0.1183,-0.1181,-0.1184,-0.1186,-0.1188,-0.119,-0.1094,-0.109,-0.1085,0,0,0,0,0,0,0,0,0,0,0,0,0,-0.118,-0.1183,-0.128,-0.1279,-0.1279,-0.1184,-0.1182,-0.118,-0.1184,-0.1186,-0.1189,-0.1191,-0.1096,-0.109,-0.1085,0,0,0,0,0,0,0,0,0,0,0,0,0,-0.1162,-0.1184,-0.128,-0.1274,-0.1273,-0.1185,-0.1182,-0.118,-0.1184,-0.1187,-0.1189,-0.1192,-0.1097,-0.1091,-0.1084,-0.0984,0,0,-0.1064,-0.1061,0,0,0,0,0,0,0,0,-0.1163,-0.1165,-0.1276,-0.1275,-0.1273,-0.1206,-0.1112,-0.1117,-0.1183,-0.121,-0.119,-0.1194,-0.1134,-0.1124,-0.109,-0.098,-0.0975,-0.1064,-0.106,-0.1057,-0.1055,0,0,0,0,0,0,0,-0.1165,-0.1167,-0.1235,-0.1275,-0.1274,-0.1179,-0.1182,-0.1111,-0.1151,-0.1208,-0.121,-0.1209,-0.1133,-0.1096,-0.1088,-0.0974,-0.1064,-0.1058,-0.1054,-0.1051,-0.0871,-0.087,0,0,0,0,0,0,-0.1203,-0.117,-0.1238,-0.1233,-0.1232,-0.118,-0.1183,-0.1218,-0.1152,-0.1146,-0.1207,-0.121,-0.1106,-0.1095,-0.1084,-0.1139,-0.1057,-0.1051,-0.1047,-0.0872,-0.0871,-0.087,0,0,0,0,0,0,-0.1202,-0.1211,-0.1242,-0.1202,-0.12,-0.1182,-0.122,-0.1215,-0.1257,-0.1152,-0.1146,-0.1264,-0.1108,-0.1094,-0.1046,-0.1129,-0.1048,-0.1042,-0.0873,-0.0872,-0.0871,-0.1134,0,0,0,0,0,0,-0.12,-0.1212,-0.1244,-0.1206,-0.1205,-0.127,-0.1218,-0.1211,-0.1251,-0.1256,-0.1197,-0.1187,-0.1109,-0.1057,-0.104,-0.1118,-0.1036,-0.0874,-0.0872,-0.0871,-0.1127,-0.1142,-0.1156,0,0,0,0,0,-0.1197,-0.1244,-0.1247,-0.1255,-0.1254,-0.1274,-0.1266,-0.1252,-0.1252,-0.1295,-0.1211,-0.1193,-0.1036,-0.105,-0.1031,-0.111,-0.0875,-0.0873,-0.0871,-0.112,-0.1139,-0.1155,0,0,0,0,0,0,-0.1189,-0.1248,-0.1251,-0.1307,-0.1326,-0.128,-0.1288,-0.1298,-0.1263,-0.1243,-0.1172,-0.1154,-0.1143,-0.1061,-0.108,-0.1039,-0.0956,-0.095,-0.1152,-0.1169,-0.1183,-0.1224,-0.1031,0,0,0,0,0,-0.1209,-0.1283,-0.1299,-0.1344,-0.1355,-0.1334,-0.1338,-0.1332,-0.1295,-0.1288,-0.1245,-0.1162,-0.1101,-0.1091,-0.1003,-0.0985,-0.0919,-0.1016,-0.1031,-0.1045,-0.1056,-0.1092,-0.1115,-0.0864,-0.0864,-0.0864,0,0,-0.1204,-0.1253,-0.1284,-0.1351,-0.1339,-0.1353,-0.1345,-0.1363,-0.1382,-0.1273,-0.1273,-0.1211,-0.1098,-0.1073,-0.1064,-0.1036,-0.1053,-0.1042,-0.1057,-0.1059,-0.1093,-0.1119,-0.1142,-0.0863,-0.0863,-0.0863,0,0,-0.1237,-0.1288,-0.1354,-0.139,-0.1419,-0.1388,-0.1428,-0.1418,-0.1434,-0.1418,-0.1338,-0.1345,-0.1234,-0.1206,-0.1166,-0.1205,-0.1121,-0.1164,-0.13,-0.1338,-0.1362,-0.1382,-0.1242,-0.1248,-0.1189,-0.1189,-0.119,0,-0.1228,-0.1316,-0.1368,-0.1434,-0.1463,-0.1428,-0.1477,-0.146,-0.144,-0.1479,-0.1449,-0.1372,-0.1311,-0.1323,-0.1324,-0.1259,-0.1183,-0.1268,-0.1371,-0.1389,-0.1406,-0.1258,-0.1261,-0.1202,-0.12,-0.1199,-0.1198,0,-0.1296,-0.1369,-0.1403,-0.1479,-0.1527,-0.1548,-0.1556,-0.1596,-0.16,-0.1594,-0.1643,-0.1556,-0.1536,-0.1526,-0.1431,-0.1515,-0.1382,-0.139,-0.1361,-0.145,-0.1282,-0.1282,-0.122,-0.1215,-0.1211,-0.1208,0,0,-0.1268,-0.1421,-0.1433,-0.1494,-0.1556,-0.159,-0.1655,-0.1717,-0.173,-0.1773,-0.1828,-0.1814,-0.1803,-0.1751,-0.168,-0.1716,-0.1748,-0.1606,-0.1602,-0.152,-0.1692,-0.1575,-0.1559,-0.1793,-0.1797,-0.1799,-0.1498,0,-0.1292,-0.1416,-0.1504,-0.159,-0.1643,-0.1708,-0.1745,-0.1808,-0.1818,-0.1829,-0.1884,-0.1843,-0.187,-0.1832,-0.191,-0.1745,-0.1769,-0.1819,-0.1565,-0.1554,-0.1494,-0.1568,-0.1508,-0.1238,-0.1496,-0.1496,-0.1496,0,-0.1309,-0.1413,-0.1516,-0.1663,-0.169,-0.1733,-0.1829,-0.1856,-0.1898,-0.1914,-0.2004,-0.1951,-0.1996,-0.198,-0.1941,-0.1961,-0.1861,-0.177,-0.1758,-0.157,-0.1443,-0.1198,-0.1225,-0.1493,-0.1493,-0.1493,-0.1494,0,-0.1231,-0.1412,-0.1496,-0.1548,-0.1684,-0.1786,-0.1839,-0.1905,-0.1891,-0.1947,-0.1905,-0.2003,-0.1931,-0.197,-0.1826,-0.1875,-0.1695,-0.1742,-0.1548,-0.1528,-0.1386,-0.1353,-0.1757,-0.1758,-0.1758,-0.1759,-0.176,0,-0.1188,-0.1258,-0.1473,-0.1513,-0.1612,-0.1749,-0.1777,-0.1862,-0.1861,-0.1793,-0.1918,-0.1841,-0.1932,-0.1837,-0.1798,-0.1632,-0.1703,-0.1565,-0.1493,-0.1456,-0.1434,-0.1601,-0.1587,-0.1748,-0.175,-0.1752,-0.1754,0,-0.1038,-0.1162,-0.1286,-0.1499,-0.1566,-0.1634,-0.1721,-0.1688,-0.1733,-0.1645,-0.1652,-0.1665,-0.1579,-0.1583,-0.1494,-0.1502,-0.1402,-0.1322,-0.1179,-0.1103,-0.1196,-0.1198,-0.1107,-0.1102,-0.1097,-0.1093,-0.109,0,-0.0985,-0.1021,-0.1249,-0.1321,-0.1422,-0.1527,-0.1536,-0.1615,-0.1561,-0.1509,-0.1428,-0.1351,-0.1273,-0.1103,-0.1112,-0.1025,-0.1144,-0.0904,-0.108,-0.1215,-0.1153,-0.1162,-0.117,-0.0913,-0.0909,-0.0905,-0.0902,0,-0.0887,-0.0941,-0.1032,-0.1177,-0.1256,-0.1296,-0.1347,-0.1274,-0.1293,-0.1229,-0.1114,-0.106,-0.0928,-0.0852,-0.0761,-0.0737,-0.0953,-0.0826,-0.1029,-0.112,-0.102,-0.0962,-0.0979,-0.087,-0.0873,-0.0875,-0.0877,-0.0878,-0.0819,-0.0828,-0.0931,-0.1039,-0.111,-0.1088,-0.1051,-0.1042,-0.0945,-0.0851,-0.0839,-0.0742,-0.0739,-0.0595,-0.0552,-0.0559,-0.0644,-0.0681,-0.0698,-0.0718,-0.0784,-0.0687,-0.0472,-0.0473,-0.0474,-0.0475,-0.0475,0,-0.0744,-0.0733,-0.0805,-0.0912,-0.0905,-0.0992,-0.0916,-0.0831,-0.0703,-0.0654,-0.0584,-0.0472,-0.0413,-0.0423,-0.0383,-0.0387,-0.0463,-0.0391,-0.0513,-0.0542,-0.0569,-0.0636,-0.028,-0.0279,-0.0279,-0.0279,0,0,-0.0696,-0.068,-0.0674,-0.0679,-0.0752,-0.0677,-0.0607,-0.0506,-0.0442,-0.0343,-0.0306,-0.0337,-0.0359,-0.0297,-0.0306,-0.0283,-0.0417,-0.0274,-0.0424,-0.0592,-0.0619,-0.0717,-0.0849,0,0,0,0,0]},{"header":{"parameterUnit":"m.s-1","parameterCategory":2,"la1":30.2991,"la2":30.254,"lo1":-89.0895,"lo2":-89.0444,"dy":0.0017,"dx":0.0017,"nx":28,"ny":28,"refTime":"2024-05-01T09:00:00:Z","depth":"2","parameterNumber":3,"parameterNumberName":"V-component_of_CURRENTS"},"data":[0,0,0,0,0,0,0,0,0,0,0,0,0,0,0,0,0,0,0,0,0,0,0,0,0,0,0,0,0,0,0,0,0,0,0,0,0,0,0,0,0,0,0,0,0,0,0,0,0,0,0,0,0,0,0,0,0,0,-0.0165,-0.0165,0,-0.0195,-0.0196,-0.0196,-0.0243,-0.0244,-0.0244,-0.0245,-0.0222,-0.0221,-0.022,0,0,0,0,0,0,0,0,0,0,0,0,0,-0.0073,-0.0075,-0.0165,-0.0165,-0.0166,-0.0195,-0.0196,-0.0196,-0.0243,-0.0244,-0.0245,-0.0245,-0.0223,-0.0221,-0.022,0,0,0,0,0,0,0,0,0,0,0,0,0,-0.011,-0.0076,-0.0165,-0.0192,-0.0194,-0.0195,-0.0196,-0.0196,-0.0242,-0.0244,-0.0245,-0.0246,-0.0223,-0.0221,-0.0219,-0.0185,0,0,-0.0213,-0.0213,0,0,0,0,0,0,0,0,-0.0108,-0.0114,-0.0188,-0.019,-0.0193,-0.0215,-0.0155,-0.0189,-0.0242,-0.0225,-0.0245,-0.0246,-0.0214,-0.0213,-0.0218,-0.0184,-0.0183,-0.0213,-0.0212,-0.0211,-0.0211,0,0,0,0,0,0,0,-0.0106,-0.0112,-0.0178,-0.0188,-0.0191,-0.0176,-0.0184,-0.0161,-0.0213,-0.0227,-0.023,-0.0231,-0.0215,-0.022,-0.0218,-0.0183,-0.0213,-0.0212,-0.021,-0.021,-0.0113,-0.0112,0,0,0,0,0,0,-0.0103,-0.011,-0.0177,-0.0179,-0.0151,-0.0177,-0.0185,-0.0208,-0.0214,-0.0216,-0.023,-0.0233,-0.0223,-0.022,-0.0217,-0.0171,-0.0211,-0.0209,-0.0208,-0.0115,-0.0113,-0.0111,0,0,0,0,0,0,-0.0101,-0.0109,-0.0176,-0.0143,-0.015,-0.0178,-0.0203,-0.0208,-0.0215,-0.0217,-0.0219,-0.0232,-0.0223,-0.022,-0.0204,-0.017,-0.0209,-0.0207,-0.0116,-0.0114,-0.0112,-0.0082,0,0,0,0,0,0,-0.0099,-0.0109,-0.0128,-0.0144,-0.0152,-0.0176,-0.0201,-0.0208,-0.0213,-0.0218,-0.0218,-0.0218,-0.0224,-0.0207,-0.0202,-0.0168,-0.0205,-0.0118,-0.0115,-0.0113,-0.0084,-0.0079,-0.0074,0,0,0,0,0,-0.0096,-0.0125,-0.0129,-0.0137,-0.0177,-0.0175,-0.0178,-0.0201,-0.0212,-0.0212,-0.0217,-0.0218,-0.0186,-0.0204,-0.0199,-0.0164,-0.0119,-0.0116,-0.0113,-0.0087,-0.008,-0.0074,0,0,0,0,0,0,-0.0101,-0.0133,-0.0138,-0.0178,-0.0171,-0.0183,-0.0193,-0.0194,-0.0198,-0.0204,-0.0207,-0.0206,-0.0177,-0.0173,-0.0193,-0.0127,-0.0149,-0.0144,-0.013,-0.0124,-0.0119,-0.0128,-0.0204,0,0,0,0,0,-0.0107,-0.0142,-0.0144,-0.0175,-0.017,-0.0174,-0.0178,-0.0183,-0.0186,-0.0191,-0.0184,-0.0174,-0.0157,-0.0146,-0.0132,-0.0096,-0.0086,-0.0067,-0.0062,-0.0058,-0.006,-0.0011,-0.0001,-0.0101,-0.0101,-0.0101,0,0,-0.012,-0.014,-0.0162,-0.0177,-0.0179,-0.0177,-0.0181,-0.0182,-0.0176,-0.0183,-0.0174,-0.0157,-0.0145,-0.0113,-0.0097,-0.0107,-0.0023,-0.0054,-0.005,-0.0055,-0.0006,0.0003,0.0012,-0.0099,-0.0099,-0.01,0,0,-0.0157,-0.0173,-0.0207,-0.0195,-0.0191,-0.0183,-0.0177,-0.0169,-0.0162,-0.0146,-0.0142,-0.0101,-0.0091,-0.0058,-0.0046,0.0004,0.0001,0.0006,0.0029,0.0078,0.0086,0.0093,0.0118,0.0128,0.0012,0.0012,0.0012,0,-0.0173,-0.0216,-0.0209,-0.022,-0.0219,-0.0183,-0.0192,-0.0167,-0.0153,-0.0133,-0.0143,-0.0085,-0.0059,-0.0006,0.0008,0.0019,0.0023,0.0001,0.0084,0.0091,0.0099,0.0122,0.0132,0.0014,0.0014,0.0013,0.0013,0,-0.0223,-0.0245,-0.0255,-0.0264,-0.025,-0.025,-0.0207,-0.018,-0.016,-0.013,-0.0074,-0.0034,-0.0003,0.003,0.0028,0.0102,0.0081,0.0082,0.0064,0.011,0.0133,0.0142,0.0016,0.0016,0.0015,0.0015,0,0,-0.0292,-0.0298,-0.03,-0.0305,-0.0274,-0.0268,-0.0233,-0.0191,-0.0161,-0.0109,-0.0077,-0.0001,0.0033,0.0051,0.0084,0.0141,0.0211,0.0126,0.0128,0.0144,0.029,0.0271,0.0279,0.0213,0.0215,0.0216,0.0285,0,-0.0336,-0.0379,-0.0359,-0.0369,-0.0381,-0.0321,-0.0287,-0.023,-0.018,-0.0125,-0.0039,0.0007,0.0039,0.0059,0.0123,0.0184,0.0237,0.0191,0.0249,0.025,0.0223,0.0291,0.0251,0.0308,0.0294,0.0296,0.0297,0,-0.0387,-0.0413,-0.0451,-0.0425,-0.042,-0.041,-0.035,-0.0315,-0.0207,-0.0159,-0.0083,-0.0024,0.008,0.009,0.0226,0.0183,0.0235,0.0287,0.0291,0.0267,0.025,0.0261,0.0326,0.0313,0.0312,0.0311,0.031,0,-0.0451,-0.0465,-0.0504,-0.0499,-0.0464,-0.0458,-0.0431,-0.0336,-0.0277,-0.0185,-0.0126,-0.002,0.0048,0.0128,0.024,0.0226,0.0372,0.037,0.0405,0.0403,0.0379,0.0372,0.0464,0.0464,0.0464,0.0464,0.0464,0,-0.0503,-0.0525,-0.0541,-0.0559,-0.0575,-0.0524,-0.0496,-0.0443,-0.0334,-0.0242,-0.0154,-0.0061,0.0062,0.0163,0.0235,0.035,0.0372,0.0421,0.0431,0.0388,0.0381,0.0389,0.0379,0.0466,0.0466,0.0465,0.0465,0,-0.0546,-0.0565,-0.0605,-0.0607,-0.0611,-0.0622,-0.0548,-0.0493,-0.0397,-0.0282,-0.0246,-0.0076,0.0052,0.0161,0.0306,0.036,0.0458,0.0488,0.0417,0.0417,0.0452,0.0444,0.0538,0.0539,0.0539,0.0539,0.0539,0,-0.0569,-0.0604,-0.0656,-0.0684,-0.0691,-0.0689,-0.0655,-0.0551,-0.0465,-0.0273,-0.0203,-0.0059,0.0066,0.0248,0.0352,0.0459,0.0473,0.0484,0.0471,0.0466,0.0466,0.0457,0.0448,0.0452,0.0451,0.0451,0.045,0,-0.0601,-0.0631,-0.0668,-0.074,-0.0748,-0.0722,-0.0667,-0.0597,-0.043,-0.0316,-0.0136,-0.0038,0.0136,0.0252,0.0369,0.0428,0.0457,0.0477,0.0518,0.043,0.0388,0.0386,0.038,0.0446,0.0446,0.0446,0.0447,0.0447,-0.0621,-0.0664,-0.0726,-0.0778,-0.0784,-0.0733,-0.0684,-0.0569,-0.0432,-0.0215,-0.0126,0.0033,0.0127,0.0296,0.038,0.0451,0.0456,0.0468,0.0469,0.047,0.0439,0.0399,0.0451,0.0452,0.0452,0.0453,0.0453,0,-0.0632,-0.0687,-0.0748,-0.0799,-0.0794,-0.0785,-0.0658,-0.0564,-0.0397,-0.0214,-0.0064,0.0053,0.0174,0.0274,0.0378,0.0442,0.0443,0.0448,0.0429,0.0432,0.0435,0.0401,0.0405,0.0405,0.0405,0.0406,0,0,-0.0647,-0.0711,-0.0746,-0.0782,-0.0806,-0.0743,-0.0662,-0.0519,-0.0364,-0.0167,-0.0042,0.0086,0.0187,0.0253,0.0315,0.0369,0.0392,0.0373,0.0398,0.0369,0.0372,0.0424,0.0372,0,0,0,0,0]}],[{"header":{"parameterUnit":"m.s-1","parameterCategory":2,"la1":30.2991,"la2":30.254,"lo1":-89.0895,"lo2":-89.0444,"dy":0.0017,"dx":0.0017,"nx":28,"ny":28,"refTime":"2024-05-01T09:00:00:Z","depth":"4","parameterNumber":2,"parameterNumberName":"U-component_of_CURRENTS"},"data":[0,0,0,0,0,0,0,0,0,0,0,0,0,0,0,0,0,0,0,0,0,0,0,0,0,0,0,0,0,0,0,0,0,0,0,0,0,0,0,0,0,0,0,0,0,0,0,0,0,0,0,0,0,0,0,0,0,0,-0.0115,-0.0115,0,-0.0098,-0.0098,-0.0097,-0.0085,-0.0085,-0.0085,-0.0085,-0.0041,-0.004,-0.0039,0,0,0,0,0,0,0,0,0,0,0,0,0,-0.0142,-0.0141,-0.0115,-0.0115,-0.0115,-0.0098,-0.0098,-0.0097,-0.0085,-0.0085,-0.0085,-0.0085,-0.0042,-0.004,-0.0039,0,0,0,0,0,0,0,0,0,0,0,0,0,-0.0127,-0.0141,-0.0115,-0.0108,-0.0107,-0.0098,-0.0098,-0.0097,-0.0085,-0.0085,-0.0085,-0.0085,-0.0042,-0.0041,-0.0039,-0.0028,0,0,-0.0033,-0.0033,0,0,0,0,0,0,0,0,-0.0128,-0.0126,-0.0109,-0.0108,-0.0107,-0.0095,-0.0091,-0.0073,-0.0085,-0.0092,-0.0085,-0.0085,-0.0058,-0.0055,-0.005,-0.0026,-0.0024,-0.0033,-0.0032,-0.0031,-0.0031,0,0,0,0,0,0,0,-0.0129,-0.0126,-0.0107,-0.0109,-0.0108,-0.0107,-0.0105,-0.0088,-0.0074,-0.0092,-0.0091,-0.0091,-0.0057,-0.0052,-0.0049,-0.0023,-0.0033,-0.0032,-0.0031,-0.003,-0.0008,-0.0009,0,0,0,0,0,0,-0.0133,-0.0127,-0.0108,-0.0107,-0.0119,-0.0106,-0.0104,-0.0098,-0.0074,-0.0071,-0.0091,-0.009,-0.0055,-0.0051,-0.0047,-0.0082,-0.0031,-0.003,-0.0029,-0.0008,-0.0008,-0.0009,0,0,0,0,0,0,-0.0133,-0.0131,-0.0108,-0.0118,-0.0115,-0.0106,-0.0099,-0.0097,-0.0089,-0.0074,-0.0071,-0.0084,-0.0055,-0.005,-0.0034,-0.0078,-0.0029,-0.0027,-0.0007,-0.0008,-0.0008,-0.012,0,0,0,0,0,0,-0.0134,-0.0131,-0.0135,-0.0118,-0.0115,-0.0102,-0.0099,-0.0097,-0.009,-0.0089,-0.0067,-0.0063,-0.0054,-0.0037,-0.0032,-0.0075,-0.0026,-0.0006,-0.0007,-0.0008,-0.0116,-0.0125,-0.0132,0,0,0,0,0,-0.0135,-0.0137,-0.0135,-0.0133,-0.0118,-0.0102,-0.01,-0.0093,-0.0089,-0.0085,-0.0074,-0.0064,-0.004,-0.0035,-0.003,-0.0074,-0.0006,-0.0007,-0.0008,-0.0112,-0.0123,-0.0132,0,0,0,0,0,0,-0.0155,-0.0136,-0.0133,-0.0131,-0.0118,-0.01,-0.0097,-0.0091,-0.0078,-0.0073,-0.0062,-0.0057,-0.0061,-0.0039,-0.0034,-0.0066,-0.0024,-0.0024,-0.0105,-0.0115,-0.0123,-0.0112,-0.0025,0,0,0,0,0,-0.0161,-0.0156,-0.0137,-0.0138,-0.0125,-0.011,-0.0105,-0.0095,-0.008,-0.0074,-0.0061,-0.0052,-0.0062,-0.0064,-0.0049,-0.0062,-0.0044,-0.0085,-0.0094,-0.0101,-0.0086,-0.0105,-0.0115,-0.0012,-0.0012,-0.0012,0,0,-0.0173,-0.0161,-0.0161,-0.0142,-0.0127,-0.0111,-0.0106,-0.0089,-0.0092,-0.0071,-0.0065,-0.0068,-0.0065,-0.0087,-0.0089,-0.0077,-0.0123,-0.0102,-0.0109,-0.009,-0.0108,-0.0118,-0.0127,-0.0013,-0.0013,-0.0013,0,0,-0.0179,-0.0174,-0.0163,-0.0146,-0.0122,-0.0114,-0.0107,-0.0082,-0.0087,-0.0082,-0.0084,-0.0105,-0.0095,-0.0122,-0.0135,-0.017,-0.0157,-0.0174,-0.0223,-0.0244,-0.0253,-0.026,-0.027,-0.0277,-0.0191,-0.0191,-0.0192,0,-0.0191,-0.0173,-0.0161,-0.0137,-0.0126,-0.0113,-0.0094,-0.01,-0.0079,-0.0102,-0.0085,-0.0117,-0.0116,-0.018,-0.0205,-0.0192,-0.0193,-0.0198,-0.0257,-0.0264,-0.027,-0.0277,-0.0284,-0.0197,-0.0196,-0.0196,-0.0195,0,-0.0184,-0.0163,-0.0151,-0.0121,-0.0114,-0.0092,-0.009,-0.0098,-0.0105,-0.0123,-0.0167,-0.0173,-0.0202,-0.0224,-0.023,-0.0293,-0.0277,-0.0262,-0.0241,-0.0288,-0.0292,-0.0297,-0.0205,-0.0203,-0.0201,-0.02,0,0,-0.0207,-0.0156,-0.015,-0.0127,-0.0098,-0.0088,-0.0108,-0.0132,-0.0168,-0.0175,-0.0223,-0.0271,-0.0289,-0.0301,-0.0324,-0.0352,-0.0416,-0.0336,-0.0335,-0.0359,-0.046,-0.0401,-0.0401,-0.0423,-0.0424,-0.0425,-0.0454,0,-0.0196,-0.0153,-0.0138,-0.0106,-0.0075,-0.0082,-0.0113,-0.0143,-0.0178,-0.0223,-0.0272,-0.0315,-0.0319,-0.0352,-0.0385,-0.0393,-0.0431,-0.0408,-0.0396,-0.0395,-0.0349,-0.0405,-0.0429,-0.0458,-0.0459,-0.046,-0.046,0,-0.0186,-0.0154,-0.0117,-0.0095,-0.0088,-0.0086,-0.0136,-0.0161,-0.0243,-0.0282,-0.0343,-0.0365,-0.0427,-0.041,-0.046,-0.0449,-0.0463,-0.0466,-0.0468,-0.0368,-0.0345,-0.0392,-0.0469,-0.0468,-0.0468,-0.0467,-0.0467,0,-0.0193,-0.0142,-0.0115,-0.0098,-0.0079,-0.0095,-0.0114,-0.0186,-0.0236,-0.0321,-0.0356,-0.0425,-0.045,-0.0477,-0.0487,-0.0484,-0.0517,-0.0512,-0.0474,-0.0469,-0.0465,-0.0456,-0.0549,-0.0549,-0.0549,-0.0548,-0.0548,0,-0.0179,-0.0154,-0.0116,-0.0091,-0.0096,-0.0096,-0.0147,-0.019,-0.0272,-0.033,-0.0385,-0.0421,-0.0467,-0.0489,-0.0501,-0.0495,-0.0533,-0.0481,-0.0475,-0.0512,-0.0508,-0.047,-0.046,-0.055,-0.0549,-0.0549,-0.0549,0,-0.0178,-0.0152,-0.0108,-0.0083,-0.0086,-0.0094,-0.015,-0.0202,-0.0274,-0.0341,-0.0368,-0.0432,-0.0453,-0.0482,-0.0517,-0.05,-0.0507,-0.0501,-0.0535,-0.0531,-0.0444,-0.044,-0.0462,-0.046,-0.0459,-0.0457,-0.0456,0,-0.0168,-0.0143,-0.0099,-0.0083,-0.0065,-0.009,-0.0126,-0.0206,-0.0257,-0.0336,-0.0358,-0.0402,-0.0435,-0.0429,-0.0465,-0.0484,-0.048,-0.0481,-0.0467,-0.0444,-0.0437,-0.0435,-0.0433,-0.0454,-0.0453,-0.0453,-0.0453,0,-0.014,-0.0127,-0.0091,-0.0058,-0.0063,-0.0088,-0.0131,-0.0173,-0.0264,-0.0321,-0.0345,-0.036,-0.0377,-0.0397,-0.0415,-0.0429,-0.0476,-0.0466,-0.0469,-0.0455,-0.0435,-0.0429,-0.0428,-0.0447,-0.0448,-0.0449,-0.0449,0,-0.0119,-0.0095,-0.0051,-0.0023,-0.0035,-0.0061,-0.01,-0.0145,-0.0206,-0.0291,-0.0292,-0.0326,-0.0367,-0.0368,-0.0383,-0.039,-0.0386,-0.0371,-0.038,-0.0386,-0.0347,-0.0308,-0.0282,0,0,0,0,0,-0.0085,-0.0056,-0.0023,0.001,-0.0009,-0.0013,-0.0089,-0.0139,-0.0223,-0.0228,-0.0265,-0.0279,-0.0295,-0.0314,-0.0307,-0.0354,-0.039,-0.0344,-0.0378,-0.0418,-0.0424,-0.0385,0,0,0,0,0,0,-0.0057,-0.0029,-0.0004,0.0028,0.0049,0.0019,-0.0025,-0.0082,-0.0099,-0.0171,-0.0184,-0.0228,-0.0254,-0.0276,-0.0281,-0.0291,-0.0301,-0.0373,-0.0371,-0.0415,-0.042,-0.0425,-0.0387,0,0,0,0,0]},{"header":{"parameterUnit":"m.s-1","parameterCategory":2,"la1":30.2991,"la2":30.254,"lo1":-89.0895,"lo2":-89.0444,"dy":0.0017,"dx":0.0017,"nx":28,"ny":28,"refTime":"2024-05-01T09:00:00:Z","depth":"4","parameterNumber":3,"parameterNumberName":"V-component_of_CURRENTS"},"data":[0,0,0,0,0,0,0,0,0,0,0,0,0,0,0,0,0,0,0,0,0,0,0,0,0,0,0,0,0,0,0,0,0,0,0,0,0,0,0,0,0,0,0,0,0,0,0,0,0,0,0,0,0,0,0,0,0,0,0.0243,0.0243,0,0.0215,0.0215,0.0214,0.0222,0.0222,0.0223,0.0224,0.0204,0.0203,0.0202,0,0,0,0,0,0,0,0,0,0,0,0,0,0.0212,0.0213,0.0243,0.0243,0.0243,0.0215,0.0215,0.0214,0.0222,0.0223,0.0223,0.0224,0.0204,0.0203,0.0202,0,0,0,0,0,0,0,0,0,0,0,0,0,0.0208,0.0213,0.0243,0.0244,0.0244,0.0215,0.0215,0.0214,0.0222,0.0223,0.0224,0.0225,0.0205,0.0203,0.0201,0.017,0,0,0.0196,0.0195,0,0,0,0,0,0,0,0,0.0208,0.0209,0.0244,0.0244,0.0244,0.0224,0.0196,0.02,0.0221,0.0229,0.0224,0.0225,0.0212,0.0209,0.02,0.0169,0.0168,0.0196,0.0195,0.0194,0.0194,0,0,0,0,0,0,0,0.0208,0.0209,0.0231,0.0244,0.0244,0.0215,0.0216,0.0197,0.0214,0.0228,0.0229,0.0227,0.0212,0.0201,0.0199,0.0168,0.0196,0.0194,0.0193,0.0193,0.01,0.0099,0,0,0,0,0,0,0.0218,0.021,0.0232,0.023,0.023,0.0215,0.0216,0.0228,0.0214,0.0213,0.0227,0.0228,0.0204,0.0201,0.0199,0.017,0.0194,0.0192,0.0191,0.0102,0.01,0.0099,0,0,0,0,0,0,0.0218,0.0221,0.0233,0.0219,0.0219,0.0215,0.0228,0.0227,0.0222,0.0213,0.0212,0.0223,0.0205,0.0201,0.0167,0.0169,0.0192,0.019,0.0103,0.0101,0.0099,0.0106,0,0,0,0,0,0,0.0217,0.0221,0.0229,0.0221,0.0221,0.0203,0.0227,0.0226,0.022,0.0221,0.0209,0.0208,0.0205,0.0169,0.0165,0.0167,0.0189,0.0105,0.0102,0.01,0.0107,0.0104,0.0101,0,0,0,0,0,0.0217,0.022,0.0229,0.0232,0.0233,0.0202,0.0198,0.0197,0.0219,0.02,0.0192,0.0209,0.015,0.0166,0.0161,0.0163,0.0107,0.0103,0.01,0.0109,0.0105,0.0101,0,0,0,0,0,0,0.02,0.0221,0.0231,0.0239,0.0218,0.0203,0.0192,0.0196,0.0176,0.0183,0.0184,0.018,0.0152,0.0145,0.0163,0.0125,0.0134,0.0129,0.0142,0.0138,0.0135,0.0134,0.0187,0,0,0,0,0,0.0203,0.022,0.0214,0.0217,0.021,0.0202,0.0192,0.0189,0.0174,0.0168,0.0157,0.0146,0.0132,0.0126,0.0102,0.0079,0.0091,0.0077,0.0074,0.0072,0.0065,0.0096,0.0097,0.0088,0.0088,0.0088,0,0,0.0196,0.0211,0.0218,0.0215,0.0205,0.0169,0.0198,0.0178,0.0149,0.0167,0.0125,0.0129,0.0119,0.0092,0.0081,0.0092,0.0075,0.0068,0.0066,0.006,0.0094,0.0095,0.0096,0.0086,0.0086,0.0087,0,0,0.0173,0.0203,0.0197,0.0177,0.0163,0.0151,0.0145,0.0125,0.0119,0.0079,0.0093,0.0091,0.0057,0.0057,0.0055,0.0016,0.0053,0.0019,0.0014,0.0045,0.0047,0.0049,0.0053,0.0056,0.0026,0.0026,0.0026,0,0.0158,0.0157,0.0182,0.0154,0.0132,0.014,0.0098,0.0084,0.0052,0.0055,0.006,0.0046,0.0038,0.0034,0.0023,0.0013,0.0035,0.0036,0.0046,0.0048,0.005,0.0054,0.0056,0.0026,0.0026,0.0026,0.0026,0,0.0118,0.0109,0.0098,0.0075,0.0049,0.0016,-0.0002,-0.0018,-0.0012,-0.0011,-0.0013,-0.0016,-0.0009,-0.001,-0.0006,0.0009,0.002,0.0038,0.0065,0.0052,0.0055,0.0058,0.0026,0.0026,0.0026,0.0026,0,0,0.01,0.0077,0.007,0.0046,0.0007,-0.0018,-0.0058,-0.0081,-0.0075,-0.0087,-0.0078,-0.0089,-0.0043,-0.0045,-0.0021,0.0003,0.003,0.0033,0.0034,0.0054,0.0094,0.0077,0.0078,0.0074,0.0074,0.0075,0.0088,0,0.0053,0.0002,-0.0004,-0.0074,-0.0109,-0.0113,-0.015,-0.016,-0.0145,-0.0136,-0.01,-0.0089,-0.0068,-0.0041,-0.0014,0.0016,0.004,0.0023,0.0087,0.0088,0.0091,0.0082,0.0077,0.009,0.0091,0.0091,0.0092,0,0.0006,-0.0019,-0.0087,-0.0129,-0.0144,-0.0186,-0.0203,-0.0228,-0.0201,-0.0177,-0.0132,-0.0096,-0.0068,-0.004,0.0014,0.0013,0.0051,0.0074,0.0076,0.0061,0.0077,0.0106,0.0097,0.0096,0.0096,0.0096,0.0095,0,-0.0018,-0.0079,-0.0127,-0.015,-0.0202,-0.0222,-0.0241,-0.0233,-0.0234,-0.0182,-0.0161,-0.0107,-0.0083,-0.0025,0.0022,0.0034,0.0081,0.0103,0.0117,0.0115,0.0127,0.0125,0.0146,0.0146,0.0146,0.0146,0.0146,0,-0.0065,-0.0104,-0.0137,-0.017,-0.0219,-0.024,-0.0264,-0.0257,-0.0238,-0.0226,-0.0168,-0.0143,-0.0071,-0.0032,0.002,0.0066,0.0083,0.0107,0.0121,0.0124,0.0122,0.0129,0.0126,0.0147,0.0147,0.0147,0.0147,0,-0.009,-0.0114,-0.017,-0.0219,-0.0234,-0.0263,-0.0291,-0.0292,-0.0267,-0.0247,-0.0231,-0.0172,-0.0116,-0.006,0.0019,0.005,0.0103,0.012,0.0094,0.0108,0.0114,0.0112,0.0133,0.0133,0.0132,0.0132,0.0132,0,-0.0108,-0.0138,-0.0197,-0.0223,-0.0248,-0.0284,-0.0307,-0.0304,-0.0295,-0.0262,-0.0252,-0.0199,-0.0153,-0.0069,-0.0003,0.0077,0.0096,0.0112,0.0131,0.0103,0.0115,0.0113,0.0111,0.0131,0.0131,0.0131,0.0131,0,-0.0141,-0.0156,-0.0196,-0.0242,-0.0278,-0.0314,-0.0334,-0.0333,-0.0318,-0.0306,-0.0256,-0.0201,-0.0147,-0.007,-0.0015,0.0049,0.0095,0.0109,0.0111,0.0129,0.0101,0.0113,0.0111,0.013,0.013,0.013,0.013,0,-0.0153,-0.0179,-0.0216,-0.0255,-0.0298,-0.0321,-0.0338,-0.0332,-0.0329,-0.0288,-0.0274,-0.0204,-0.0164,-0.0084,-0.0029,0.0023,0.0044,0.0063,0.0068,0.007,0.005,0.0005,0.0013,0,0,0,0,0,-0.0157,-0.0177,-0.022,-0.0266,-0.0307,-0.0322,-0.0346,-0.0352,-0.0342,-0.0309,-0.0288,-0.0229,-0.0141,-0.0099,-0.0049,-0.0035,0.0047,0.0023,0.007,0.0123,0.0125,0.0111,0,0,0,0,0,0,-0.0159,-0.0195,-0.0215,-0.0258,-0.0283,-0.0324,-0.0335,-0.0334,-0.0309,-0.0291,-0.0242,-0.0219,-0.0132,-0.0164,-0.0046,-0.0032,0.0004,0.0064,0.0065,0.0123,0.0124,0.0125,0.0112,0,0,0,0,0]}]]